Location: Newark
(50.1395°N, 5.5234°W)
Time: 00:14:19
(UTC+00:00)

ISS - Pass Details

Date: 12 March 2021
Orbit: 418 x 422 km, 51.6° (Epoch: 11 April)

Event Time Altitude Azimuth Distance (km) Brightness Sun altitude
Exits shadow 04:48:47 18° 172° (S) 1,091 -1.8 -18.8°
Drops below altitude 10° 04:50:04 10° 155° (SSE) 1,492 -0.9 -18.6°
Sets 04:52:20 0° 143° (SE) 2,353 0.3 -18.2°
